Station KYWF1 - 8724580 - Key West, FL Image indicating link to RSS feed of recent meteorological observations for station KYWF1


Conditions at KYWF1 as of
(3:18 am EDT)
0718 GMT on 05/26/2024:
     

Click on the graph icon in the table below to see a time series plot of the last five days of that observation.

5-day plot - Wind Direction Wind Direction (WDIR): E ( 100 deg true )
5-day plot - Wind Speed Wind Speed (WSPD): 1.9 kts
5-day plot - Wind Gust Wind Gust (GST): 4.1 kts
5-day plot - Atmospheric Pressure Atmospheric Pressure (PRES):29.93 in
5-day plot - Air Temperature Air Temperature (ATMP): 82.0 °F
5-day plot - Water Temperature Water Temperature (WTMP): 88.7 °F
5-day plot - Wind Speed at 10 Meters Wind Speed at 10 meters (WSPD10M): 1.9 kts
5-day plot - Wind Speed at 20 Meters Wind Speed at 20 meters (WSPD20M): 1.9 kts
5-day plot -  Wind Speed, Wind Gust and Atmospheric Pressure Combined plot of Wind Speed, Gust, and Air Pressure
NOS Water Level Observation Network Water Level
Previous observations
TIME
(EDT)
5-day plot - Wind Direction
WDIR
 
5-day plot - Wind Speed
WSPD
kts
5-day plot - Wind Gust
GST
kts
5-day plot - Wave Height
WVHT
ft
5-day plot - Dominant Wave Period
DPD
sec
5-day plot - Average Wave Period
APD
sec
5-day plot - Mean Wave Direction
MWD
 
5-day plot - Atmospheric Pressure
PRES
in
5-day plot - Pressure Tendency
PTDY
in
5-day plot - Air Temperature
ATMP
°F
5-day plot - Water Temperature
WTMP
°F
5-day plot - Dew Point
DEWP
°F
5-day plot - Salinity
SAL
psu
5-day plot - Visibility
VIS
nmi
5-day plot - Tide (above MLLW)
TIDE
ft
2024-05-26 03:12 am E 2.9 4.1----29.93- 82.0 88.7----
2024-05-26 03:06 am E 2.9 4.1----29.93- 82.0 88.9----
2024-05-26 03:00 am E 1.9 4.1----29.94-0.03 82.2 88.9----
2024-05-26 02:54 am E 2.9 5.1----29.94- 82.2 88.9----
2024-05-26 02:48 amENE 1.9 4.1----29.94- 82.4 88.9----
2024-05-26 02:42 amENE 2.9 4.1----29.94- 82.4 88.9----
2024-05-26 02:36 am E 2.9 2.9----29.93- 82.6 88.9----
2024-05-26 02:30 am E 1.9 2.9----29.93- 82.4 88.9----
2024-05-26 02:24 am E 2.9 4.1----29.94- 82.4 88.9----
2024-05-26 02:18 amESE 2.9 4.1----29.94- 82.4 88.9----
2024-05-26 02:12 amESE 2.9 5.1----29.94- 82.4 88.9----
2024-05-26 02:06 amESE 2.9 5.1----29.95- 82.6 88.9----
2024-05-26 02:00 amESE 2.9 4.1----29.95-0.02 82.8 88.9----
2024-05-26 01:54 amESE 2.9 4.1----29.95- 82.8 88.9----
2024-05-26 01:48 am E 1.9 4.1----29.96- 82.9 88.9----
2024-05-26 01:42 amESE 1.9 4.1----29.96- 82.9 88.9----
2024-05-26 01:36 am E 1.9 4.1----29.96- 82.9 89.1----
2024-05-26 01:30 am E 1.9 5.1----29.96- 83.1 89.1----
2024-05-26 01:24 amENE 4.1 6.0----29.96- 83.1 89.1----
2024-05-26 01:18 am NE 2.9 5.1----29.96- 83.3 89.1----
2024-05-26 01:12 amENE 4.1 6.0----29.96- 83.3 89.1----
2024-05-26 01:06 am NE 2.9 6.0----29.96- 83.5 89.1----
2024-05-26 01:00 am NE 2.9 5.1----29.96+0.00 83.5 89.1----
2024-05-26 12:54 amNNE 2.9 5.1----29.96- 83.5 89.1----
2024-05-26 12:48 am NE 1.9 4.1----29.96- 83.5 89.1----
2024-05-26 12:42 amNNE 2.9 4.1----29.96- 83.7 89.1----
2024-05-26 12:36 am NE 1.9 5.1----29.97- 83.7 89.1----
2024-05-26 12:30 amNNE 2.9 6.0----29.96- 83.7 89.1----
2024-05-26 12:24 am NE 4.1 6.0----29.96- 83.8 89.1----
2024-05-26 12:18 am NE 4.1 6.0----29.96- 83.7 89.1----
2024-05-26 12:12 am NE 2.9 5.1----29.96- 83.7 89.2----
2024-05-26 12:06 amNNE 2.9 5.1----29.96- 83.8 89.2----
2024-05-26 12:00 am NE 2.9 6.0----29.97+0.01 83.8 89.2----
2024-05-25 11:54 pm NE 2.9 5.1----29.97- 83.8 89.2----
2024-05-25 11:48 pmNNE 2.9 4.1----29.97- 83.8 89.2----
2024-05-25 11:42 pmENE 1.9 5.1----29.97- 83.8 89.2----
2024-05-25 11:36 pmNNE 2.9 5.1----29.97- 84.0 89.2----
2024-05-25 11:30 pmNNE 4.1 5.1----29.97- 84.0 89.2----
2024-05-25 11:24 pmNNE 1.9 5.1----29.98- 84.0 89.2----
2024-05-25 11:18 pm NE 4.1 6.0----29.98- 84.0 89.4----
2024-05-25 11:12 pmNNE 2.9 5.1----29.97- 84.2 89.2----
2024-05-25 11:06 pmNNE 2.9 5.1----29.97- 84.4 89.2----
2024-05-25 11:00 pm N 4.1 5.1----29.97+0.04 84.4 89.2----
2024-05-25 10:54 pmNNE 2.9 6.0----29.97- 84.2 89.2----
2024-05-25 10:48 pmNNE 5.1 7.0----29.97- 84.4 89.2----
2024-05-25 10:42 pm N 5.1 6.0----29.97- 84.4 89.2----
2024-05-25 10:36 pm NE 2.9 5.1----29.97- 84.4 89.2----
2024-05-25 10:30 pmNNE 2.9 6.0----29.97- 84.6 89.4----
2024-05-25 10:24 pm N 5.1 6.0----29.97- 84.6 89.4----
2024-05-25 10:18 pmNNE 2.9 5.1----29.97- 84.6 89.2----
2024-05-25 10:12 pm N 4.1 5.1----29.97- 84.6 89.2----
2024-05-25 10:06 pm N 5.1 6.0----29.97- 84.6 89.2----
2024-05-25 10:00 pm N 5.1 7.0----29.97+0.04 84.6 89.2----
2024-05-25 09:54 pm N 4.1 6.0----29.96- 84.6 89.4----
2024-05-25 09:48 pm N 4.1 5.1----29.96- 84.6 89.4----
2024-05-25 09:42 pm N 1.9 4.1----29.96- 84.6 89.4----
2024-05-25 09:36 pmNNE 1.9 5.1----29.96- 84.7 89.2----
2024-05-25 09:30 pmNNE 2.9 6.0----29.96- 84.6 89.2----
2024-05-25 09:24 pm N 4.1 5.1----29.96- 84.7 89.4----
2024-05-25 09:18 pm NE 1.9 5.1----29.96- 84.6 89.4----
2024-05-25 09:12 pm N 4.1 6.0----29.96- 84.7 89.4----
2024-05-25 09:06 pm N 5.1 6.0----29.96- 85.1 89.2----
2024-05-25 09:00 pmNNW 4.1 6.0----29.96- 84.9 89.2----
2024-05-25 08:54 pm N 4.1 6.0----29.96- 84.9 89.2----
2024-05-25 08:48 pmNNW 5.1 6.0----29.95- 84.9 89.2----
2024-05-25 08:42 pmNNW 5.1 6.0----29.95- 84.9 89.2----
2024-05-25 08:36 pmNNW 5.1 7.0----29.95- 84.9 89.2----
2024-05-25 08:30 pm N 2.9 6.0----29.95- 84.9 89.2----
2024-05-25 08:24 pmNNW 5.1 7.0----29.94- 85.1 89.1----
2024-05-25 08:18 pm N 2.9 6.0----29.94- 85.1 89.2----
2024-05-25 08:12 pmNNW 4.1 5.1----29.94- 85.5 89.2----
2024-05-25 08:06 pmNNW 2.9 5.1----29.94- 86.0 89.2----
2024-05-25 08:00 pmNNW 5.1 6.0----29.93+0.00 86.5 89.2----
2024-05-25 07:54 pmNNW 5.1 7.0----29.93- 86.9 89.1----
2024-05-25 07:48 pm-------29.93- 87.6 89.1----
2024-05-25 07:42 pm-------29.93- 88.2 89.2----
2024-05-25 07:36 pm-------29.93- 88.3 89.2----
2024-05-25 07:30 pm NW 5.1 7.0----29.93-- 89.1----
2024-05-25 07:24 pmNNW 5.1 7.0----29.93-- 89.2----
2024-05-25 07:18 pmNNW 5.1 7.0----29.93- 89.2 89.2----
2024-05-25 07:12 pm NW 5.1 7.0----29.93- 89.6 89.1----
2024-05-25 07:06 pm NW 5.1 5.1----29.93- 90.1 89.1----
2024-05-25 07:00 pm NW 4.1 6.0----29.93-0.01 89.4 89.1----
2024-05-25 06:54 pmNNW 5.1 7.0----29.93- 89.8 89.1----
2024-05-25 06:48 pm NW 5.1 7.0----29.93-- 89.1----
2024-05-25 06:42 pm NW 6.0 7.0----29.93-- 89.1----
2024-05-25 06:36 pmNNW 5.1 7.0----29.93-- 89.1----
2024-05-25 06:30 pm NW 6.0 7.0----29.93- 89.2 89.1----
2024-05-25 06:24 pmNNW 6.0 8.0----29.93- 89.1 89.1----
2024-05-25 06:18 pm NW 6.0 7.0----29.93- 89.2 89.1----
2024-05-25 06:12 pm NW 5.1 7.0----29.93- 89.4 88.9----
2024-05-25 06:06 pm NW 2.9 6.0----29.93- 89.6 89.1----
2024-05-25 06:00 pm NW 6.0 6.0------ 88.7 89.2----
2024-05-25 05:54 pm NW 6.0 7.0------ 88.9 89.2----
2024-05-25 05:48 pm NW 6.0 7.0----29.93-- 89.2----
2024-05-25 05:42 pm NW 5.1 7.0----29.93-- 89.4----
2024-05-25 05:36 pmWNW 5.1 6.0----29.93-- 89.2----
2024-05-25 05:30 pm NW 5.1 7.0----29.93- 88.3-----
2024-05-25 05:24 pmWNW 5.1 6.0----29.93- 88.3-----
2024-05-25 05:18 pm NW 5.1 6.0----29.93- 88.2 89.8----
2024-05-25 05:12 pm NW 5.1 7.0----29.94- 88.3 89.8----
2024-05-25 05:06 pmWNW 6.0 7.0----29.93- 88.2 89.8----
2024-05-25 05:00 pmWNW 4.1 5.1----29.93-0.04 88.9 89.8----
2024-05-25 04:54 pm NW 5.1 6.0----29.94- 88.2 89.8----
2024-05-25 04:48 pm NW 5.1 7.0----29.94-- 89.8----
2024-05-25 04:42 pmNNW 6.0 8.0----29.94-- 90.0----
2024-05-25 04:36 pm NW 6.0 7.0----29.94-- 90.0----
2024-05-25 04:30 pm NW 6.0 7.0----29.94- 87.4 90.0----
2024-05-25 04:24 pm NW 6.0 7.0----29.94- 87.4 89.8----
2024-05-25 04:18 pmNNW 6.0 7.0----29.94- 88.0 89.8----
2024-05-25 04:12 pm NW 5.1 6.0----29.94- 87.8 89.8----
2024-05-25 04:06 pm NW 5.1 7.0----29.94- 87.6 89.8----
2024-05-25 04:00 pm-------29.94-0.05 87.6 89.8----
2024-05-25 03:54 pm-------29.94- 87.8 89.8----
2024-05-25 03:48 pm NW 5.1 6.0----29.94- 87.8 89.6----
2024-05-25 03:42 pmWNW 5.1 6.0----29.95- 87.6 89.6----
2024-05-25 03:36 pm NW 4.1 7.0----29.94- 87.4 89.4----
2024-05-25 03:30 pmWNW 5.1 7.0----29.95-- 89.2----
2024-05-25 03:24 pmWNW 5.1 8.0----29.95-- 89.1----
2024-05-25 03:18 pmWNW 4.1 5.1----29.95- 88.0 89.2----
2024-05-25 03:12 pm W 5.1 6.0----29.95- 87.8 89.2----
2024-05-25 03:06 pmWSW 2.9 6.0----29.95- 88.2 89.1----
2024-05-25 03:00 pmWNW 5.1 7.0----29.95-0.04 87.8 89.1----
2024-05-25 02:54 pm W 4.1 6.0----29.95- 88.3 88.7----
2024-05-25 02:48 pm W 5.1 7.0----29.96- 87.8 88.9----
2024-05-25 02:42 pmWNW 2.9 6.0----29.96- 87.6 88.9----
2024-05-25 02:36 pm W 4.1 5.1----29.96- 88.0 88.9----
2024-05-25 02:30 pm W 2.9 5.1----29.97- 87.8 89.1----
2024-05-25 02:24 pm W 4.1 5.1----29.97- 87.4 89.1----
2024-05-25 02:18 pm W 4.1 6.0----29.98- 87.6 88.9----
2024-05-25 02:12 pm W 2.9 5.1----29.97- 88.0 89.1----
2024-05-25 02:06 pm W 4.1 6.0----29.98- 88.0 88.9----
2024-05-25 02:00 pm W 4.1 5.1----29.98+0.00 87.6 88.9----
2024-05-25 01:54 pmWNW 4.1 6.0----29.98- 86.9 88.7----
2024-05-25 01:48 pm W 4.1 6.0----29.98-- 88.7----
2024-05-25 01:42 pmWNW 4.1 6.0----29.98-- 88.7----
2024-05-25 01:36 pm W 5.1 7.0----29.98-- 88.5----
2024-05-25 01:30 pmWSW 4.1 6.0----29.98- 86.7 88.3----
2024-05-25 01:24 pm SW 4.1 7.0----29.98- 88.0 88.3----
2024-05-25 01:18 pmWSW 2.9 5.1----29.98- 88.5 88.3----
2024-05-25 01:12 pm SW 5.1 7.0----29.99- 88.2 88.3----
2024-05-25 01:06 pmSSW 4.1 7.0----29.99- 88.0 88.2----
2024-05-25 01:00 pm SW 4.1 8.9----29.99+0.00 87.3 88.3----
2024-05-25 12:54 pmSSW 2.9 7.0----29.99- 87.6 88.2----
2024-05-25 12:48 pmSSW 4.1 7.0----29.99- 88.9 88.2----
2024-05-25 12:42 pm S 2.9 5.1----29.99- 88.7 88.2----
2024-05-25 12:36 pmSSW 5.1 7.0----30.00- 88.7 88.2----
2024-05-25 12:30 pm-------30.00- 88.3 88.2----
2024-05-25 12:24 pm-------30.00- 89.1 88.2----
2024-05-25 12:18 pm S 4.1 6.0----30.00- 88.7 88.2----
2024-05-25 12:12 pm SW 2.9 8.0----30.00- 88.5 88.0----
2024-05-25 12:06 pm S 1.9 5.1----29.99- 88.5 88.2----
2024-05-25 12:00 pm S 2.9 6.0----29.99+0.01 89.1 88.0----
2024-05-25 11:54 am S 2.9 6.0----29.99- 89.2 88.2----
2024-05-25 11:48 am S 2.9 6.0----29.99-- 88.2----
2024-05-25 11:42 am S 2.9 6.0----29.99-- 88.0----
2024-05-25 11:36 amSSW 4.1 6.0----29.99-- 88.2----
2024-05-25 11:30 amSSW 5.1 7.0----29.99- 88.5 88.2----
2024-05-25 11:24 am S 4.1 7.0----29.99- 88.7 88.0----
2024-05-25 11:18 am S 1.9 6.0----29.98- 88.5 88.0----
2024-05-25 11:12 am S 4.1 6.0----29.98- 88.9 88.0----
2024-05-25 11:06 amSSE 5.1 6.0----29.98- 88.5 88.2----
2024-05-25 11:00 am S 2.9 7.0----29.98+0.01 88.0 88.0----
2024-05-25 10:54 am S 6.0 8.9----29.98- 87.8 88.0----
2024-05-25 10:48 am S 4.1 7.0----29.98- 87.8 88.0----
2024-05-25 10:42 amSSE 5.1 7.0----29.98- 88.5 88.0----
2024-05-25 10:36 amSSE 4.1 7.0----29.98- 88.7 88.0----
2024-05-25 10:30 amSSE 5.1 8.0----29.98- 88.5 88.0----
2024-05-25 10:24 amSSE 5.1 7.0----29.98- 88.2 88.0----
2024-05-25 10:18 am S 6.0 8.0----29.98- 88.3 88.0----
2024-05-25 10:12 amSSE 2.9 7.0----29.98- 88.5 88.0----
2024-05-25 10:06 am S 5.1 8.9----29.99- 89.1 88.0----
2024-05-25 10:00 am S 5.1 7.0----29.98+0.03- 88.0----
2024-05-25 09:54 am S 4.1 7.0----29.99-- 88.0----
2024-05-25 09:48 am S 4.1 8.0----29.99-- 88.0----
2024-05-25 09:42 amSSE 5.1 8.0----29.99-- 88.0----
2024-05-25 09:36 amSSE 5.1 7.0----29.99-- 88.0----
2024-05-25 09:30 amSSE 5.1 8.0----29.99- 88.2 88.0----
2024-05-25 09:24 amSSE 5.1 7.0----29.98- 88.3 88.0----
2024-05-25 09:18 am SE 5.1 8.0----29.98- 89.1 88.0----
2024-05-25 09:12 amSSE 4.1 7.0----29.98- 88.3 88.0----
2024-05-25 09:06 amSSE 4.1 7.0----29.98- 88.5 87.8----
2024-05-25 09:00 am SE 6.0 8.0----29.98+0.04 88.3 87.8----
2024-05-25 08:54 am S 2.9 6.0----29.98- 88.2 87.8----
2024-05-25 08:48 amSSE 4.1 6.0----29.98-- 87.8----
2024-05-25 08:42 am S 2.9 8.0----29.98-- 87.8----
2024-05-25 08:36 am SE 5.1 7.0----29.98-- 87.8----
2024-05-25 08:30 am SE 5.1 7.0----29.98- 88.5 87.8----
2024-05-25 08:24 am SE 4.1 8.0----29.98- 87.6 87.8----
2024-05-25 08:18 amSSE 2.9 7.0----29.98- 88.0 88.0----
2024-05-25 08:12 amSSE 1.9 6.0----29.98- 86.9 88.0----
2024-05-25 08:06 am SE 5.1 8.0----29.98- 86.7 88.0----
2024-05-25 08:00 am SE 5.1 6.0----29.98+0.04 87.1 88.0----
2024-05-25 07:54 am SE 1.9 6.0----29.97- 86.0 88.0----
2024-05-25 07:48 amSSE 5.1 7.0----29.97- 86.0 88.0----
2024-05-25 07:42 amSSE 2.9 6.0----29.97- 85.5 88.0----
2024-05-25 07:36 amSSE 1.9 7.0----29.96- 84.6 88.0----
2024-05-25 07:30 amSSE 5.1 6.0----29.96- 84.6 88.0----
2024-05-25 07:24 amSSE 4.1 7.0----29.96- 84.0 88.0----
2024-05-25 07:18 amSSE 4.1 6.0----29.96- 83.5 88.0----
2024-05-25 07:12 amSSE 4.1 6.0----29.96- 82.9 88.0----
2024-05-25 07:06 am SE 2.9 4.1----29.96- 82.6 88.2----
2024-05-25 07:00 am SE 4.1 6.0----29.95+0.03 81.9 88.2----
2024-05-25 06:54 am SE 5.1 7.0----29.95- 81.7 88.2----
2024-05-25 06:48 amSSE 4.1 6.0----29.95- 81.5 88.2----
2024-05-25 06:42 am SE 4.1 6.0----29.95- 81.7 88.2----
2024-05-25 06:36 am SE 4.1 6.0----29.94- 81.7 88.2----
2024-05-25 06:30 am-------29.94- 81.7 88.2----
2024-05-25 06:24 am-------29.94- 81.7 88.2----
2024-05-25 06:18 amSSE 5.1 7.0----29.94- 81.7 88.2----
2024-05-25 06:12 am SE 4.1 7.0----29.94- 81.7 88.2----
2024-05-25 06:06 am SE 5.1 7.0----29.94- 81.9 88.2----
2024-05-25 06:00 am SE 5.1 7.0----29.94+0.02- 88.2----
2024-05-25 05:54 amESE 4.1 7.0----29.94-- 88.2----
2024-05-25 05:48 am SE 6.0 8.0----29.94- 81.9 88.2----
2024-05-25 05:42 am SE 5.1 7.0----29.94- 81.7 88.3----
2024-05-25 05:36 am SE 4.1 7.0----29.94- 81.9 88.3----
2024-05-25 05:30 amESE 2.9 6.0------ 81.9 88.3----
2024-05-25 05:24 amESE 4.1 6.0------ 81.9 88.3----
2024-05-25 05:18 am SE 4.1 7.0----29.93- 81.7 88.3----
2024-05-25 05:12 am SE 4.1 6.0----29.93- 81.7 88.3----
2024-05-25 05:06 am SE 4.1 6.0----29.93- 81.5 88.3----
2024-05-25 05:00 amESE 2.9 6.0----29.93+0.00- 88.3----
2024-05-25 04:54 amESE 4.1 6.0----29.93-- 88.3----
2024-05-25 04:48 amESE 4.1 7.0----29.93-- 88.3----
2024-05-25 04:42 am E 2.9 6.0----29.93-- 88.3----
2024-05-25 04:36 am SE 2.9 5.1----29.93-- 88.3----
2024-05-25 04:30 amESE 4.1 6.0----29.92- 81.7-----
2024-05-25 04:24 am SE 4.1 7.0----29.92- 81.7-----
2024-05-25 04:18 am SE 2.9 6.0----29.92-------
2024-05-25 04:12 amESE 5.1 6.0----29.92-------
2024-05-25 04:06 am SE 2.9 7.0----29.92-------
2024-05-25 04:00 amESE 2.9 7.0----29.92-0.03 81.9-----
2024-05-25 03:54 amESE 4.1 7.0----29.92- 81.9-----
2024-05-25 03:48 am SE 6.0 8.0----29.92- 82.0 88.5----
2024-05-25 03:42 am SE 5.1 8.0----29.92- 81.9 88.5----
2024-05-25 03:36 am SE 4.1 5.1----29.92- 81.9 88.5----
2024-05-25 03:30 am SE 4.1 7.0----29.92- 81.9 88.5----
2024-05-25 03:24 amESE 4.1 6.0----29.92- 81.9 88.5----
2024-05-25 03:18 am SE 4.1 6.0----29.92- 81.9 88.5----
2024-05-25 03:12 amESE 2.9 5.1----29.92- 82.0 88.5----
2024-05-25 03:06 amESE 5.1 8.0----29.92- 82.2 88.5----
2024-05-25 03:00 am SE 4.1 6.0----29.92-0.04- 88.5----
2024-05-25 02:54 amESE 2.9 5.1----29.92-- 88.5----